铱星星座 159星 (IRIDIUM 159)

导读

IRIDIUM 159是美国铱星通信公司运营的第二代低轨通信卫星(Iridium-NEXT星座),于2018年7月25日发射。作为全球覆盖卫星通信系统的组成部分,它为极地、海洋、偏远地区等提供全天候语音和数据通信服务,同时搭载托管有效载荷支持对地观测任务,设计使用寿命达12.5-15年,助力延续铱星系统服务至2030年后。

Basic Information
目录编号:
43578
目录名称:
IRIDIUM 159
国际标识:
2018-061K
轨道中心:
EARTH
卫星名称:
铱星星座 159星
卫星全名:
铱星星座 159星 (IRIDIUM 159)
卫星状态:
在轨 (已飞行2974 天)
发射日期:
2018-07-25 UTC
国别 :
美国 (US)
星等 :
--
This satellite is enrolled in the Space Conjunction Data Service (SCDS) and the current flight risk assessment level is: No High Risk
Orbit Information
数据来源 国际轨道数据 AOE轨道数据
星历时间 2026-09-15T21:21:18+0800
8小时前
查看轨道信息
2026-09-10T06:00:00+0800
6天前
查看轨道信息
半长轴 7155.806km 7155.804km
偏心率 0.0002212 0.0002196
轨道倾角 86.401° 86.401°
近地点辐角 95.284° 94.139°
升交点赤经 18.909° 21.266°
平近点角 264.861° 325.111°
近地点 776.086km 776.095km
远地点 779.252km 779.239km
周期 100.403分钟 100.403分钟
每日圈数 14.342174 14.342179
Detailed Information
平衡模式:
三轴稳定
覆盖范围:
全球
运营商:
铱星通信公司
运营商所在国:
美国
制造商(研发单位):
阿莱尼亚宇航公司
制造商所在国:
意大利
使用方式:
暂无
Satellite Introduction
铱星(Iridium)是由共66个运作中的通信卫星组成的卫星通信系统。这个系统原本规划77个通信卫星,所以用原子序数为77的铱元素来命名。铱卫星允许人们使用手持型电子设备进行全球性的语音及数据通讯。该卫星仍在工作。
2D Orbit Map
3D Orbit Map
Orbit Altitude Analysis Chart
Orbit Inclination Analysis Chart
Orbit Comprehensive Analysis Chart
View Comprehensive Chart
Conjunction Data List
Event ID Objects TCA Miss Dist (km) Collision Risk Probability Collision Risk Index (CRI) Action
CDM_260911-142203-705404-357829
2026-09-11T
14:22:38+0000
2.119 km
极远距离
2.433183E-6 低风险 0.43
CDM_260915-234804-357806-097528
2026-09-15T
23:48:11+0000
2.766 km
极远距离
1.387318E-6 低风险 0.38
Miss Distance Evolution Trend with All Objects Subscribe to Flight Safety Assessment
Collision Probability Evolution Trend with All Objects Subscribe to Flight Safety Assessment